Regional Weather Roundup
Issued by NWS Wakefield, VA

Home | Current Version | Previous Version | Graphics & Text | Print | Product List | Glossary On
Versions: 1 2 3 4 5 6 7 8 9 10 11 12 13 14 15 16 17 18 19 20 21 22 23 24 25 26 27 28 29 30 31 32 33 34 35 36 37 38 39 40 41 42 43 44 45 46 47 48 49 50
000
ASUS41 KAKQ 200510
RWRAKQ

REGIONAL WEATHER ROUNDUP
NATIONAL WEATHER SERVICE WAKEFIELD VA
100 AM EDT SAT SEP 20 2014

Note: "fair" indicates few or no clouds below 12,000 feet with no
significant weather and/or obstructions to visibility. * = Denotes
station may not report precipitation (e.g., rain,snow,etc.),
thunder or fog.

VAZ042-051-052>054-056-200600-
NORTHERN VIRGINIA

CITY           SKY/WX    TMP DP  RH WIND       PRES   REMARKS
WASH NATIONAL  CLEAR     67  60  78 E3        30.29F
DULLES         MOCLDY    63  59  87 SE8       30.28S
FORT BELVOIR   CLEAR     63  60  90 CALM      30.29S
QUANTICO       PTCLDY    67  62  84 S7        30.29S
FREDERICKSBRG* CLEAR     61  60  96 E3        30.27S
STAFFORD*      CLEAR     59  59 100 CALM      30.32F
WARRENTON      CLOUDY    65  65  98 CALM      30.28R
CULPEPER*      CLOUDY    64  61  88 CALM      30.29S
MANASSAS*      CLEAR     63  61  94 E5        30.28S
LEESBURG*      CLOUDY    66  63  88 SE8       30.30S
WINCHESTER     CLOUDY    64  59  82 SE8       30.26F
FRONT ROYAL*   MOCLDY    63  55  77 S3        30.25F
LURAY*         CLOUDY    63  59  88 CALM      30.26F
$$

VAZ048-049-060>072-079>083-200600-
CENTRAL AND SOUTH CENTRAL VIRGINIA...AND NORTH CENTRAL NORTH CAROLINA

CITY           SKY/WX    TMP DP  RH WIND       PRES   REMARKS
RICHMOND       MOCLDY    64  59  83 E6        30.27F
CHESTERFIELD*  CLOUDY   N/A N/A N/A E5        30.27F
PETERSBURG*    CLEAR     56  54  93 CALM      30.27F
HANOVER        CLOUDY    65  59  81 CALM      30.29S
TAPPAHANNOCK*  CLEAR     57  55  93 CALM      30.29S
CHARLOTTSVILLE CLOUDY    63  60  90 NW3       30.28S
ORANGE*        MOCLDY    61  55  82 CALM      30.29S
LOUISA*        MOCLDY    63  59  88 E3        30.27S
FARMVILLE*     CLOUDY    64  63  94 CALM      30.25F
CREWE*         CLOUDY    61  57  87 E3        30.27S
FORT PICKETT*  MOCLDY    58  57  96 E3        30.27F
LUNENBURG*     MOCLDY    61  59  92 CALM      30.27S
SOUTH HILL*    PTCLDY    61  61 100 CALM      30.31F
LAWRENCEVILLE* MOCLDY    61  58  90 CALM      30.26S
ROANOKE RAPIDS PTCLDY    59  55  88 CALM      30.25S
RALEIGH        CLEAR     64  57  78 E6        30.25S
$$

VAZ088>098-200600-
SOUTHEAST VIRGINIA

CITY           SKY/WX    TMP DP  RH WIND       PRES   REMARKS
NORFOLK        CLEAR     68  57  68 E3        30.25F
VIRGINIA BEACH PTCLDY    68  56  65 E7        30.24F
NORFOLK NAVAL  CLEAR     70  57  63 E7        30.26F
WEST POINT*    CLEAR     61  58  90 CALM      30.29S
NEWPORT NEWS   CLEAR     64  58  80 NE3       30.26F
LANGLEY AFB    CLEAR     66  59  78 E9        30.25F
FORT EUSTIS    CLEAR     65  60  83 E2        30.25S
WILLIAMSBURG*  CLEAR     63  61  94 CALM      30.27F
HR EXEC AP*    CLEAR     54  52  94 CALM      30.27F
FRANKLIN*      CLEAR     57  55  94 CALM      30.25F
WAKEFIELD      CLEAR     59  56  89 CALM      30.26F
$$

VAZ020-022-025-037-045-200600-
WEST CENTRAL AND SOUTHWEST VIRGINIA

CITY           SKY/WX    TMP DP  RH WIND       PRES   REMARKS
STAUNTON*      CLOUDY    60  56  86 CALM      30.29F
HOT SPRINGS VA FOG       53  50  90 SE6       30.34F VSB<1/4
LYNCHBURG      MOCLDY    60  59  96 CALM      30.29S
DANVILLE       CLOUDY    65  61  87 CALM      30.26F
SOUTH BOSTON*  NOT AVBL
MARTINSVILLE   PTCLDY    59  59 100 CALM      30.29S FOG
ROANOKE        CLOUDY    61  58  90 CALM      30.29F
BLACKSBURG     CLOUDY    59  59 100 CALM      30.31S FOG
DUBLIN*        CLOUDY    60  60 100 CALM      30.30F FOG
MARION*        CLOUDY    63  57  82 E7        30.30S
HILLSVILLE*    CLOUDY    60  58  92 SE5       30.30S
RICHLANDS*     PTCLDY    65  58  77 SE6       30.24F
WISE*          CLEAR     63  52  67 S9        30.23S
ABINGDON*      CLEAR     62  57  83 CALM      30.24S
$$

MDZ021>025-VAZ099-100-200600-
SOUTHERN MARYLAND AND THE DELMARVA PENINSULA

CITY           SKY/WX    TMP DP  RH WIND       PRES   REMARKS
PATUXENT RIVER PTCLDY    66  61  84 SE6       30.28F
BAY BRIDGE APT   N/A     61  59  94 E6        30.30R
LEONARDTOWN    CLEAR     61  59  94 E3        30.29F
DOVER          MOCLDY    67  60  80 E12       30.27F
GEORGETOWN     PTCLDY    63  58  83 SE5       30.29F
EASTON         CLEAR     62  62 100 CALM      30.32F
CAMBRIDGE      CLEAR     61  55  82 CALM      30.28F
SALISBURY      CLEAR     63  57  81 CALM      30.28F
OCEAN CITY     PTCLDY    70  60  70 SE16G23   30.29F
WALLOPS ISLAND PTCLDY    70  62  76 SE12      30.29S
ACCOMACK*      PTCLDY    66  59  77 E6        30.27S
$$

NCZ012>017-030>032-200600-
EASTERN NORTH CAROLINA

CITY           SKY/WX    TMP DP  RH WIND       PRES   REMARKS
ELIZABETH CITY CLEAR     66  60  81 N6        30.24S
AHOSKIE*       CLEAR     59  56  91 CALM      30.25F
EDENTON*       CLEAR     61  59  93 CALM      30.24S
CURRITUCK*     CLEAR     71  58  63 NE5       30.25S
KILL DEVIL HLS CLEAR     72  60  67 NE8       30.21S
MANTEO         CLEAR     71  61  70 NE10G17   30.22S
CAPE HATTERAS  CLOUDY    71  64  78 NE10G20   30.18F
TARBORO*       PTCLDY    59  57  95 NE3       30.25S
GOLDSBORO      CLEAR     64  63  97 CALM      30.20F
WASHINGTON     PTCLDY    63  58  84 NE5       30.22S
GREENVILLE     CLEAR     61  59  94 N3        30.23F
NEW BERN       MOCLDY    69  60  73 NE9       30.21S
WILMINGTON     CLOUDY    68  62  81 NE9       30.16F
$$

VAZ048-200600-
ELSEWHERE

CITY           SKY/WX    TMP DP  RH WIND       PRES   REMARKS
HARRISBURG PA  CLOUDY    60  55  83 SE12      30.29F
BALTIMORE      CLOUDY    63  59  87 E7        30.30S
ANNAPOLIS      MOCLDY    65  60  84 E5        30.29F
ANDREWS AFB    CLEAR     62  60  93 NE3       30.28F
WILMINGTON DE  PTCLDY    60  55  83 E9        30.32F
PHILADELPHIA   MOCLDY    59  54  83 E8        30.32F
WILDWOOD NJ*   MOCLDY    66  55  68 E12       30.32S
ATLANTIC CITY  PTCLDY    63  57  81 E8        30.32F
HENDERSON NC   CLOUDY    62  58  86 NE3       30.26S
GREENSBORO     PTCLDY    62  60  93 N3        30.25F
ROCKY MOUNT    PTCLDY    61  57  87 CALM      30.24S
FAYETTEVILLE   CLEAR     65  59  81 NE7       30.20F
CHARLOTTE      CLOUDY    68  61  78 NE7       30.23F
$$

VAZ100-200600-
MARINE

STATION/POSITION TIME  TEMP    WIND        PRES    WAVE   SWELL
                       AIR SEA DIR/SP/G            HT/PER HT/PER
                 (UTC) (F)     (DEG/KT/KT) (MB)    (FT/S) (FT/S)
44066 TX TWR #4  0500   65 72  100/ 14/ 16 1027.0F   5/ 6   3/ 6
CAPE MAY NJ      0500   67                 1025.5F
LEWES DE         0500   69                 1025.4S
15NM E FENWICK I 0500   70 71              1025.4F   5/ 7
OCEAN-CITY-INLET 0500   70                 1025.3F
WACHAPREAGUE VA  0500   70                 1025.1S
THOMAS POINT MD  0500   66 74  110/ 10/ 11 1026.5F
GOOSES REEF MD   0500   68     130/ 14/ 16 1025.7F
COVE POINT MD    0500   66                 1025.2F
SOLOMONS ISLAND  0400      76                N/A
BISHOPS HEAD MD  0500   67                 1025.0F
PINEY POINT MD   0400          120/  8/ 10   N/A
POTOMAC MD       0500   71     120/ 12/ 14 1024.7F
CAMBRIDGE MD     0500   65                 1025.2F
LEWISETTA VA     0500   70                 1025.0R
RAPPAHANNOCK LGT 0500                      1025.5S
STINGRAY PT      0500   71     110/ 12/ 16   N/A
YORK RVR RNG VA  0500   71                 1024.3F
YORKTOWN VA      0500   71                 1024.5F
JAMESTOWN VA     0500   70      90/  4/  6   N/A
DOMINION TERM VA 0500   72                 1024.6F
KIPTOPEKE VA     0400      79   90/  5/  6   N/A
CHES BAY BRIDGE  0500   71                 1024.0S
CAPE HENRY VA    0500   71                 1023.2S
CHESAPEAKE LGHT  0400   71      60/ 17/ 18 1025.1F
WILLOUBY STN VA  0500   72                 1023.1F
S CRANEY ISL VA  0500                      1024.2F
CAPE HENRY BUOY  0500      75                N/A     4/ 5
1ST LANDING BUOY 0500   72      70/ 12/ 16 1024.0F
CAPE CHARLES BUO 0500      74                N/A     4/ 4   2/ 7
OFFSHORE WE BUOY 0500      74                N/A     4/ 7   2/ 7
64NM E OF VA BCH 0500   74 76   50/ 17/ 21 1023.0F   4/ 8   2/ 8
DUCK PIER NC     0500   72                 1022.7F
44100 DUCK FRF   0500      74                N/A     4/ 5   2/11
44056 DUCK FRF   0500                        N/A     5/ 6
OREGON INLET NC  0500   72                 1022.7S
HATTERAS NC      0500   73                 1022.3F
DIAMOND SHLS NC  0500   76      50/ 17/ 23 1020.9F   6/ 7   2/ 9
CAPE LOOKOUT NC  0500   74      40/ 19/ 22 1021.2F
$$



USA.gov is the U.S. government's official web portal to all federal, state and local government web resources and services.